PIA302 OPKC-OPLA

Flight info

Callsign PIA302
Flight time 1h 19m
Altitude 39000
Route BADUL J112 MIMAL
Aircraft B77W/H-SDE1E2E3FGHIJ2J3J4J5M1RWXY/LB1D1

Departure

Time 2026-05-08 17:09
Airport Jinnah International Airport (OPKC)

Arrival

Time 2026-05-08 18:29
Airport Allama Iqbal International Airport (OPLA)
Time Latitude Longitude Altitude Speed Heading
2026-05-08 16:45 24.90218 67.16510 106 ft 0 kts 124°
2026-05-08 16:59 24.90231 67.16488 107 ft 4 kts 116°
2026-05-08 16:59 24.90241 67.16461 106 ft 4 kts 105°
2026-05-08 17:00 24.90246 67.16432 107 ft 4 kts 89°
2026-05-08 17:00 24.90241 67.16405 104 ft 4 kts 52°
2026-05-08 17:00 24.90226 67.16397 105 ft 4 kts 345°
2026-05-08 17:00 24.90199 67.16405 105 ft 4 kts 345°
2026-05-08 17:01 24.90173 67.16413 104 ft 4 kts 345°
2026-05-08 17:01 24.90156 67.16418 103 ft 0 kts 344°
2026-05-08 17:03 24.90160 67.16417 103 ft 1 kts 344°
2026-05-08 17:03 24.90169 67.16414 104 ft 2 kts 344°
2026-05-08 17:03 24.90183 67.16410 103 ft 3 kts 344°
2026-05-08 17:04 24.90223 67.16397 103 ft 8 kts 344°
2026-05-08 17:04 24.90280 67.16379 106 ft 9 kts 342°
2026-05-08 17:04 24.90337 67.16360 106 ft 9 kts 350°
2026-05-08 17:04 24.90390 67.16388 105 ft 9 kts 51°
2026-05-08 17:05 24.90414 67.16449 107 ft 9 kts 74°
2026-05-08 17:05 24.90431 67.16519 107 ft 10 kts 75°
2026-05-08 17:05 24.90450 67.16594 107 ft 11 kts 74°
2026-05-08 17:05 24.90471 67.16675 107 ft 11 kts 74°
2026-05-08 17:06 24.90492 67.16760 107 ft 12 kts 74°
2026-05-08 17:06 24.90515 67.16851 107 ft 13 kts 74°
2026-05-08 17:06 24.90539 67.16946 107 ft 13 kts 74°
2026-05-08 17:06 24.90564 67.17045 107 ft 14 kts 74°
2026-05-08 17:07 24.90590 67.17148 107 ft 14 kts 74°
2026-05-08 17:07 24.90617 67.17255 107 ft 15 kts 74°
2026-05-08 17:07 24.90650 67.17365 107 ft 15 kts 65°
2026-05-08 17:07 24.90723 67.17447 108 ft 15 kts 33°
2026-05-08 17:08 24.90821 67.17486 109 ft 15 kts 356°
2026-05-08 17:08 24.90857 67.17420 109 ft 13 kts 259°
2026-05-08 17:08 24.90802 67.17191 111 ft 69 kts 255°
2026-05-08 17:08 24.90597 67.16393 106 ft 156 kts 254°
2026-05-08 17:09 24.90563 67.16266 110 ft 164 kts 252°
2026-05-08 17:09 24.90470 67.15906 180 ft 175 kts 255°
2026-05-08 17:09 24.90243 67.14946 889 ft 168 kts 254°
2026-05-08 17:10 24.90074 67.13652 1937 ft 178 kts 271°
2026-05-08 17:10 24.90503 67.12282 2558 ft 207 kts 302°
2026-05-08 17:10 24.91753 67.11236 2909 ft 248 kts 340°
2026-05-08 17:10 24.93490 67.11183 3720 ft 261 kts 17°
2026-05-08 17:11 24.94981 67.12246 4755 ft 255 kts 51°
2026-05-08 17:11 24.96034 67.13789 5741 ft 249 kts 58°
2026-05-08 17:11 24.96983 67.15375 6454 ft 252 kts 58°
2026-05-08 17:11 24.97231 67.15789 6590 ft 253 kts 58°
2026-05-08 17:12 24.98097 67.17217 6840 ft 254 kts 57°
2026-05-08 17:13 24.99101 67.18828 6830 ft 260 kts 56°
2026-05-08 17:13 25.00144 67.20457 6835 ft 259 kts 56°
2026-05-08 17:13 25.01193 67.22065 6833 ft 257 kts 55°
2026-05-08 17:13 25.02244 67.23645 6829 ft 255 kts 53°
2026-05-08 17:14 25.03447 67.25128 7053 ft 268 kts 47°
2026-05-08 17:14 25.04770 67.26613 7970 ft 276 kts 47°
2026-05-08 17:14 25.06120 67.28122 8983 ft 280 kts 46°
2026-05-08 17:14 25.07445 67.29615 10047 ft 279 kts 45°
2026-05-08 17:15 25.08804 67.31157 10832 ft 292 kts 45°
2026-05-08 17:15 25.10205 67.32755 11159 ft 320 kts 45°
2026-05-08 17:15 25.11820 67.34603 11383 ft 351 kts 45°
2026-05-08 17:15 25.13566 67.36610 11936 ft 368 kts 45°
2026-05-08 17:16 25.14732 67.37957 12543 ft 371 kts 45°
2026-05-08 17:16 25.17110 67.40693 13935 ft 372 kts 44°
2026-05-08 17:16 25.18273 67.42042 14506 ft 375 kts 44°
2026-05-08 17:16 25.20091 67.44147 15269 ft 383 kts 44°
2026-05-08 17:17 25.21951 67.46298 16009 ft 391 kts 44°
2026-05-08 17:17 25.24610 67.49033 17035 ft 398 kts 38°
2026-05-08 17:17 25.26063 67.50352 17552 ft 402 kts 38°
2026-05-08 17:17 25.28219 67.52300 18295 ft 409 kts 38°
2026-05-08 17:18 25.30433 67.54301 18982 ft 414 kts 38°
2026-05-08 17:18 25.32666 67.56323 19774 ft 416 kts 38°
2026-05-08 17:18 25.34911 67.58365 20529 ft 419 kts 38°
2026-05-08 17:18 25.37164 67.60420 21188 ft 424 kts 38°
2026-05-08 17:19 25.39461 67.62519 21839 ft 430 kts 37°
2026-05-08 17:19 25.41776 67.64638 22504 ft 434 kts 37°
2026-05-08 17:19 25.44102 67.66768 23166 ft 438 kts 37°
2026-05-08 17:19 25.46464 67.68933 23727 ft 442 kts 37°
2026-05-08 17:20 25.48836 67.71108 24236 ft 446 kts 37°
2026-05-08 17:20 25.51246 67.73319 24749 ft 450 kts 37°
2026-05-08 17:20 25.53664 67.75538 25279 ft 454 kts 37°
2026-05-08 17:20 25.56100 67.77775 25782 ft 457 kts 36°
2026-05-08 17:21 25.58551 67.80027 26265 ft 461 kts 36°
2026-05-08 17:21 25.61005 67.82283 26715 ft 465 kts 36°
2026-05-08 17:21 25.63501 67.84579 27187 ft 468 kts 36°
2026-05-08 17:21 25.66018 67.86896 27653 ft 472 kts 36°
2026-05-08 17:22 25.68556 67.89233 28097 ft 475 kts 36°
2026-05-08 17:22 25.71114 67.91590 28541 ft 479 kts 36°
2026-05-08 17:22 25.73683 67.93959 28946 ft 482 kts 35°
2026-05-08 17:22 25.76263 67.96340 29396 ft 483 kts 35°
2026-05-08 17:23 25.78853 67.98731 29775 ft 486 kts 35°
2026-05-08 17:23 25.81456 68.01136 30141 ft 487 kts 35°
2026-05-08 17:23 25.84068 68.03551 30496 ft 488 kts 35°
2026-05-08 17:23 25.86678 68.05965 30863 ft 489 kts 35°
2026-05-08 17:24 25.89299 68.08391 31244 ft 490 kts 35°
2026-05-08 17:24 25.91922 68.10819 31629 ft 491 kts 34°
2026-05-08 17:24 25.94519 68.13226 32000 ft 492 kts 34°
2026-05-08 17:24 25.97150 68.15665 32391 ft 493 kts 34°
2026-05-08 17:25 25.99777 68.18101 32755 ft 494 kts 34°
2026-05-08 17:25 26.02420 68.20555 33178 ft 494 kts 34°
2026-05-08 17:25 26.05053 68.23002 33648 ft 493 kts 34°
2026-05-08 17:25 26.07687 68.25450 34061 ft 492 kts 34°
2026-05-08 17:26 26.10309 68.27890 34496 ft 490 kts 34°
2026-05-08 17:26 26.12923 68.30322 34866 ft 490 kts 34°
2026-05-08 17:26 26.15548 68.32764 35186 ft 491 kts 34°
2026-05-08 17:26 26.18134 68.35173 35512 ft 491 kts 34°
2026-05-08 17:27 26.20791 68.37649 35860 ft 491 kts 34°
2026-05-08 17:27 26.23387 68.40039 36202 ft 490 kts 33°
2026-05-08 17:27 26.26078 68.42370 36533 ft 488 kts 31°
2026-05-08 17:27 26.28800 68.44652 36874 ft 488 kts 31°
2026-05-08 17:28 26.31521 68.46916 37205 ft 488 kts 31°
2026-05-08 17:28 26.34232 68.49185 37514 ft 488 kts 31°
2026-05-08 17:28 26.36944 68.51472 37820 ft 488 kts 31°
2026-05-08 17:28 26.39616 68.53743 38161 ft 488 kts 31°
2026-05-08 17:29 26.42307 68.56041 38517 ft 486 kts 31°
2026-05-08 17:29 26.44997 68.58341 38682 ft 489 kts 31°
2026-05-08 17:29 26.50419 68.62976 38758 ft 492 kts 31°
2026-05-08 17:30 26.55830 68.67613 38759 ft 486 kts 31°
2026-05-08 17:30 26.61176 68.72192 38770 ft 484 kts 31°
2026-05-08 17:31 26.66527 68.76749 38766 ft 483 kts 31°
2026-05-08 17:31 26.71883 68.81300 38771 ft 483 kts 31°
2026-05-08 17:32 26.77205 68.85832 38767 ft 484 kts 31°
2026-05-08 17:32 26.82567 68.90408 38774 ft 485 kts 31°
2026-05-08 17:33 26.87940 68.95000 38762 ft 486 kts 31°
2026-05-08 17:33 26.93328 68.99611 38764 ft 487 kts 31°
2026-05-08 17:34 26.98725 69.04236 38761 ft 488 kts 31°
2026-05-08 17:34 27.04119 69.08863 38760 ft 488 kts 31°
2026-05-08 17:35 27.09516 69.13499 38763 ft 488 kts 31°
2026-05-08 17:35 27.14918 69.18144 38755 ft 488 kts 31°
2026-05-08 17:36 27.20268 69.22752 38758 ft 488 kts 31°
2026-05-08 17:36 27.25653 69.27394 38752 ft 487 kts 31°
2026-05-08 17:37 27.31009 69.32080 38753 ft 487 kts 31°
2026-05-08 17:37 27.36312 69.36816 38750 ft 486 kts 32°
2026-05-08 17:38 27.41612 69.41558 38753 ft 486 kts 31°
2026-05-08 17:38 27.46902 69.46282 38751 ft 485 kts 31°
2026-05-08 17:39 27.52198 69.51011 38750 ft 485 kts 31°
2026-05-08 17:39 27.57448 69.55703 38756 ft 485 kts 31°
2026-05-08 17:40 27.62740 69.60441 38745 ft 485 kts 31°
2026-05-08 17:40 27.68021 69.65174 38752 ft 485 kts 31°
2026-05-08 17:41 27.73297 69.69910 38757 ft 484 kts 31°
2026-05-08 17:41 27.78570 69.74649 38751 ft 484 kts 31°
2026-05-08 17:42 27.83841 69.79392 38748 ft 484 kts 31°
2026-05-08 17:42 27.89104 69.84134 38750 ft 483 kts 31°
2026-05-08 17:43 27.94358 69.88874 38766 ft 483 kts 31°
2026-05-08 17:43 27.99610 69.93617 38759 ft 482 kts 31°
2026-05-08 17:44 28.04847 69.98355 38771 ft 482 kts 31°
2026-05-08 17:44 28.10078 70.03093 38749 ft 480 kts 31°
2026-05-08 17:45 28.15263 70.07795 38751 ft 479 kts 31°
2026-05-08 17:45 28.20458 70.12512 38764 ft 478 kts 31°
2026-05-08 17:46 28.25642 70.17224 38765 ft 477 kts 31°
2026-05-08 17:46 28.30825 70.21943 38772 ft 477 kts 31°
2026-05-08 17:47 28.35990 70.26678 38779 ft 479 kts 32°
2026-05-08 17:47 28.39971 70.31122 38771 ft 486 kts 38°
2026-05-08 17:48 28.45325 70.37761 38766 ft 487 kts 39°
2026-05-08 17:48 28.49874 70.43411 38766 ft 487 kts 39°
2026-05-08 17:49 28.54462 70.49064 38764 ft 486 kts 39°
2026-05-08 17:49 28.59061 70.54714 38778 ft 486 kts 39°
2026-05-08 17:50 28.63655 70.60365 38773 ft 487 kts 39°
2026-05-08 17:50 28.68249 70.66026 38769 ft 487 kts 39°
2026-05-08 17:51 28.72839 70.71692 38784 ft 487 kts 38°
2026-05-08 17:51 28.77422 70.77358 38776 ft 486 kts 39°
2026-05-08 17:52 28.82004 70.83030 38770 ft 486 kts 39°
2026-05-08 17:53 28.88866 70.91539 38772 ft 485 kts 39°
2026-05-08 17:53 28.93419 70.97195 38777 ft 484 kts 39°
2026-05-08 17:54 28.97964 71.02850 38779 ft 483 kts 39°
2026-05-08 17:54 29.02503 71.08503 38780 ft 482 kts 39°
2026-05-08 17:55 29.06996 71.14108 38795 ft 481 kts 38°
2026-05-08 17:55 29.11506 71.19741 38789 ft 480 kts 38°
2026-05-08 17:56 29.16009 71.25374 38779 ft 479 kts 38°
2026-05-08 17:56 29.20498 71.30998 38785 ft 478 kts 38°
2026-05-08 17:57 29.24987 71.36629 38789 ft 478 kts 38°
2026-05-08 17:57 29.29438 71.42219 38790 ft 478 kts 38°
2026-05-08 17:58 29.33893 71.47899 38793 ft 479 kts 39°
2026-05-08 17:58 29.38324 71.53616 38802 ft 480 kts 38°
2026-05-08 17:59 29.42761 71.59344 38801 ft 481 kts 38°
2026-05-08 17:59 29.47212 71.65086 38798 ft 481 kts 38°
2026-05-08 18:00 29.50909 71.69860 38796 ft 482 kts 38°
2026-05-08 18:00 29.58339 71.79471 38803 ft 482 kts 38°
2026-05-08 18:01 29.62786 71.85234 38800 ft 482 kts 38°
2026-05-08 18:01 29.67205 71.90970 38811 ft 482 kts 39°
2026-05-08 18:02 29.70926 71.95807 38811 ft 482 kts 38°
2026-05-08 18:02 29.76089 72.02527 38805 ft 482 kts 38°
2026-05-08 18:03 29.80535 72.08324 38803 ft 482 kts 39°
2026-05-08 18:03 29.84974 72.14119 38806 ft 482 kts 39°
2026-05-08 18:04 29.88578 72.20754 38818 ft 511 kts 61°
2026-05-08 18:04 29.90778 72.28586 38829 ft 515 kts 63°
2026-05-08 18:05 29.92619 72.35179 38820 ft 514 kts 62°
2026-05-08 18:05 29.94907 72.42923 38808 ft 513 kts 62°
2026-05-08 18:06 29.97245 72.50683 38807 ft 512 kts 62°
2026-05-08 18:06 29.99569 72.58451 38808 ft 512 kts 62°
2026-05-08 18:07 30.02457 72.65732 38808 ft 479 kts 40°
2026-05-08 18:07 30.04658 72.68520 38829 ft 468 kts 37°
2026-05-08 18:07 30.06894 72.71245 38815 ft 467 kts 37°
2026-05-08 18:08 30.11305 72.76768 38811 ft 468 kts 38°
2026-05-08 18:08 30.15647 72.82371 38822 ft 468 kts 38°
2026-05-08 18:09 30.19981 72.87985 38823 ft 468 kts 38°
2026-05-08 18:09 30.24322 72.93614 38824 ft 469 kts 38°
2026-05-08 18:10 30.28665 72.99262 38836 ft 470 kts 39°
2026-05-08 18:10 30.32982 73.04886 38827 ft 469 kts 39°
2026-05-08 18:11 30.37319 73.10546 38834 ft 469 kts 39°
2026-05-08 18:11 30.41642 73.16193 38858 ft 468 kts 38°
2026-05-08 18:12 30.45921 73.21800 38590 ft 457 kts 38°
2026-05-08 18:12 30.48013 73.24548 37994 ft 454 kts 38°
2026-05-08 18:12 30.50091 73.27264 37080 ft 458 kts 39°
2026-05-08 18:13 30.52220 73.30041 36166 ft 463 kts 39°
2026-05-08 18:13 30.54368 73.32849 35268 ft 467 kts 40°
2026-05-08 18:13 30.56525 73.35677 34392 ft 470 kts 41°
2026-05-08 18:13 30.58697 73.38531 33515 ft 472 kts 42°
2026-05-08 18:14 30.60875 73.41398 32533 ft 473 kts 43°
2026-05-08 18:14 30.63053 73.44268 31556 ft 474 kts 43°
2026-05-08 18:14 30.65237 73.47147 30585 ft 476 kts 44°
2026-05-08 18:14 30.67414 73.50019 29702 ft 474 kts 44°
2026-05-08 18:15 30.69582 73.52884 28951 ft 468 kts 45°
2026-05-08 18:15 30.71713 73.55702 28291 ft 460 kts 45°
2026-05-08 18:15 30.73812 73.58477 27624 ft 454 kts 45°
2026-05-08 18:15 30.75881 73.61212 26933 ft 450 kts 45°
2026-05-08 18:16 30.77946 73.63943 26220 ft 446 kts 45°
2026-05-08 18:16 30.79985 73.66639 25528 ft 443 kts 46°
2026-05-08 18:16 30.82011 73.69322 24851 ft 440 kts 46°
2026-05-08 18:16 30.84024 73.71991 24216 ft 436 kts 46°
2026-05-08 18:17 30.86013 73.74630 23631 ft 432 kts 46°
2026-05-08 18:17 30.87963 73.77217 22964 ft 428 kts 46°
2026-05-08 18:17 30.89918 73.79814 22207 ft 426 kts 46°
2026-05-08 18:17 30.91896 73.82442 21447 ft 425 kts 46°
2026-05-08 18:18 30.93816 73.84995 20736 ft 423 kts 46°
2026-05-08 18:18 30.95751 73.87570 20007 ft 422 kts 46°
2026-05-08 18:18 30.97676 73.90133 19290 ft 420 kts 46°
2026-05-08 18:18 30.99575 73.92665 18604 ft 407 kts 46°
2026-05-08 18:19 31.01399 73.95102 17878 ft 390 kts 46°
2026-05-08 18:19 31.03149 73.97441 17099 ft 375 kts 46°
2026-05-08 18:19 31.04834 73.99692 16353 ft 363 kts 46°
2026-05-08 18:19 31.06473 74.01882 15631 ft 353 kts 46°
2026-05-08 18:20 31.08070 74.04015 14911 ft 344 kts 46°
2026-05-08 18:20 31.09624 74.06091 14229 ft 336 kts 46°
2026-05-08 18:20 31.11145 74.08124 13533 ft 328 kts 46°
2026-05-08 18:20 31.12630 74.10111 12768 ft 321 kts 46°
2026-05-08 18:21 31.14083 74.12057 12044 ft 315 kts 46°
2026-05-08 18:21 31.15489 74.13941 11328 ft 310 kts 46°
2026-05-08 18:21 31.16894 74.15825 10654 ft 304 kts 45°
2026-05-08 18:21 31.18266 74.17667 10073 ft 297 kts 45°
2026-05-08 18:22 31.19611 74.19472 9470 ft 291 kts 45°
2026-05-08 18:22 31.20926 74.21236 8840 ft 286 kts 45°
2026-05-08 18:22 31.22220 74.22973 8294 ft 279 kts 46°
2026-05-08 18:22 31.23475 74.24660 7807 ft 271 kts 46°
2026-05-08 18:23 31.24698 74.26303 7317 ft 265 kts 46°
2026-05-08 18:23 31.25893 74.27910 6837 ft 259 kts 46°
2026-05-08 18:23 31.27070 74.29493 6374 ft 255 kts 47°
2026-05-08 18:23 31.28224 74.31046 5871 ft 251 kts 47°
2026-05-08 18:24 31.29346 74.32556 5406 ft 248 kts 47°
2026-05-08 18:24 31.30468 74.34066 4918 ft 245 kts 48°
2026-05-08 18:24 31.31581 74.35566 4429 ft 243 kts 48°
2026-05-08 18:24 31.32683 74.37052 3959 ft 240 kts 49°
2026-05-08 18:25 31.33764 74.38508 3496 ft 234 kts 50°
2026-05-08 18:25 31.34920 74.39737 3317 ft 217 kts 28°
2026-05-08 18:25 31.36359 74.40128 3159 ft 210 kts
2026-05-08 18:25 31.37783 74.40198 3068 ft 198 kts
2026-05-08 18:26 31.39135 74.40227 2884 ft 191 kts
2026-05-08 18:26 31.40442 74.40249 2635 ft 185 kts
2026-05-08 18:26 31.41714 74.40271 2390 ft 178 kts
2026-05-08 18:26 31.42899 74.40290 2181 ft 162 kts
2026-05-08 18:27 31.43974 74.40310 1957 ft 146 kts
2026-05-08 18:27 31.44647 74.40324 1882 ft 146 kts
2026-05-08 18:27 31.46041 74.40348 1614 ft 151 kts
2026-05-08 18:27 31.47085 74.40367 1423 ft 150 kts
2026-05-08 18:28 31.48133 74.40384 1184 ft 152 kts
2026-05-08 18:28 31.49186 74.40415 990 ft 150 kts
2026-05-08 18:28 31.50225 74.40425 836 ft 150 kts
2026-05-08 18:28 31.51259 74.40441 734 ft 146 kts
2026-05-08 18:29 31.52176 74.40460 730 ft 112 kts
2026-05-08 18:29 31.52802 74.40468 729 ft 62 kts 360°
2026-05-08 18:29 31.53023 74.40533 728 ft 23 kts 29°
2026-05-08 18:29 31.53124 74.40607 730 ft 11 kts 37°
2026-05-08 18:30 31.53110 74.40674 729 ft 11 kts 161°
2026-05-08 18:30 31.52993 74.40681 728 ft 19 kts 180°
2026-05-08 18:30 31.52862 74.40678 728 ft 19 kts 181°
2026-05-08 18:30 31.52731 74.40674 729 ft 19 kts 181°
2026-05-08 18:31 31.52601 74.40672 728 ft 19 kts 181°
2026-05-08 18:31 31.52471 74.40672 728 ft 19 kts 179°
2026-05-08 18:31 31.52405 74.40781 730 ft 19 kts 106°
2026-05-08 18:31 31.52311 74.40843 729 ft 10 kts 176°
2026-05-08 18:32 31.52242 74.40846 728 ft 10 kts 179°
2026-05-08 18:32 31.52174 74.40847 730 ft 9 kts 179°
2026-05-08 18:32 31.52132 74.40848 729 ft 6 kts 179°
2026-05-08 18:32 31.52088 74.40845 728 ft 7 kts 182°
2026-05-08 18:33 31.52041 74.40847 728 ft 6 kts 159°
2026-05-08 18:33 31.52037 74.40870 728 ft 3 kts 85°
2026-05-08 18:33 31.52039 74.40902 728 ft 4 kts 88°
2026-05-08 18:33 31.52039 74.40918 728 ft 2 kts 90°
2026-05-08 18:34 31.52039 74.40923 728 ft 1 kts 89°
2026-05-08 18:34 31.52039 74.40931 727 ft 0 kts 89°